JST563 YMAV-YMML

Flight info

Callsign JST563
Flight time 0h 14m
Altitude 5000
Route ML
Aircraft A320/M-SDE3FGHIRWY/LB1

Departure

Time 2026-04-21 08:26
Airport Melbourne Avalon International Airport (YMAV)

Arrival

Time 2026-04-21 08:41
Airport Melbourne Airport (YMML)
Time Latitude Longitude Altitude Speed Heading
2026-04-21 07:48 -38.02731 144.47368 36 ft 0 kts
2026-04-21 08:16 -38.02733 144.47368 36 ft 3 kts
2026-04-21 08:17 -38.02759 144.47362 35 ft 4 kts 15°
2026-04-21 08:17 -38.02784 144.47350 36 ft 4 kts 37°
2026-04-21 08:17 -38.02797 144.47328 36 ft 3 kts 94°
2026-04-21 08:17 -38.02797 144.47324 36 ft 0 kts 97°
2026-04-21 08:21 -38.02803 144.47344 34 ft 7 kts 118°
2026-04-21 08:21 -38.02888 144.47358 36 ft 19 kts 185°
2026-04-21 08:21 -38.03061 144.47327 36 ft 29 kts 191°
2026-04-21 08:22 -38.03216 144.47191 36 ft 24 kts 238°
2026-04-21 08:22 -38.03348 144.47057 34 ft 26 kts 200°
2026-04-21 08:22 -38.03530 144.47020 36 ft 27 kts 187°
2026-04-21 08:22 -38.03726 144.46989 36 ft 29 kts 186°
2026-04-21 08:23 -38.03929 144.46954 35 ft 31 kts 188°
2026-04-21 08:23 -38.04144 144.46917 35 ft 32 kts 187°
2026-04-21 08:23 -38.04366 144.46879 35 ft 30 kts 188°
2026-04-21 08:23 -38.04525 144.46851 36 ft 18 kts 188°
2026-04-21 08:24 -38.04629 144.46820 37 ft 11 kts 222°
2026-04-21 08:24 -38.04642 144.46775 37 ft 0 kts 267°
2026-04-21 08:24 -38.04642 144.46772 37 ft 0 kts 268°
2026-04-21 08:24 -38.04642 144.46768 37 ft 2 kts 271°
2026-04-21 08:25 -38.04640 144.46741 37 ft 4 kts 276°
2026-04-21 08:25 -38.04635 144.46687 36 ft 9 kts 276°
2026-04-21 08:25 -38.04615 144.46625 36 ft 7 kts 343°
2026-04-21 08:25 -38.04548 144.46634 34 ft 17 kts
2026-04-21 08:26 -38.04163 144.46699 33 ft 92 kts
2026-04-21 08:26 -38.03337 144.46838 39 ft 144 kts
2026-04-21 08:26 -38.02281 144.47016 470 ft 153 kts 10°
2026-04-21 08:26 -38.01234 144.47202 1106 ft 150 kts 14°
2026-04-21 08:27 -38.00625 144.47576 1491 ft 149 kts 43°
2026-04-21 08:27 -37.99916 144.48557 1980 ft 156 kts 45°
2026-04-21 08:27 -37.98829 144.50021 2285 ft 187 kts 44°
2026-04-21 08:27 -37.98210 144.50845 2444 ft 202 kts 44°
2026-04-21 08:28 -37.97206 144.52183 2913 ft 215 kts 44°
2026-04-21 08:28 -37.96162 144.53574 3734 ft 218 kts 44°
2026-04-21 08:28 -37.95076 144.55018 4245 ft 237 kts 45°
2026-04-21 08:28 -37.93882 144.56605 4684 ft 260 kts 45°
2026-04-21 08:29 -37.92504 144.58150 5427 ft 268 kts 36°
2026-04-21 08:29 -37.91012 144.59623 5844 ft 274 kts 37°
2026-04-21 08:29 -37.89511 144.61110 5961 ft 274 kts 37°
2026-04-21 08:29 -37.88004 144.62599 5993 ft 274 kts 36°
2026-04-21 08:30 -37.86501 144.64079 5982 ft 274 kts 36°
2026-04-21 08:30 -37.84997 144.65558 5984 ft 276 kts 37°
2026-04-21 08:30 -37.83476 144.67054 5987 ft 277 kts 37°
2026-04-21 08:30 -37.81958 144.68548 5986 ft 277 kts 37°
2026-04-21 08:31 -37.80432 144.70048 6004 ft 277 kts 37°
2026-04-21 08:31 -37.78913 144.71540 6004 ft 277 kts 37°
2026-04-21 08:31 -37.77391 144.73036 6008 ft 277 kts 37°
2026-04-21 08:31 -37.75866 144.74534 6009 ft 277 kts 37°
2026-04-21 08:32 -37.74341 144.76033 6012 ft 277 kts 37°
2026-04-21 08:32 -37.72825 144.77521 6020 ft 276 kts 37°
2026-04-21 08:32 -37.71313 144.79003 6021 ft 276 kts 37°
2026-04-21 08:32 -37.69800 144.80484 6021 ft 276 kts 37°
2026-04-21 08:33 -37.68281 144.81972 6022 ft 275 kts 37°
2026-04-21 08:33 -37.66784 144.83433 5908 ft 274 kts 37°
2026-04-21 08:33 -37.65281 144.84895 5591 ft 273 kts 37°
2026-04-21 08:33 -37.63784 144.86356 5280 ft 272 kts 37°
2026-04-21 08:34 -37.62290 144.87817 4950 ft 271 kts 37°
2026-04-21 08:34 -37.60824 144.89252 4807 ft 263 kts 37°
2026-04-21 08:34 -37.59399 144.90652 4627 ft 257 kts 37°
2026-04-21 08:34 -37.58004 144.92027 4450 ft 251 kts 38°
2026-04-21 08:35 -37.56924 144.93687 4276 ft 245 kts 66°
2026-04-21 08:35 -37.56672 144.95775 4095 ft 241 kts 97°
2026-04-21 08:35 -37.57062 144.97801 3926 ft 235 kts 105°
2026-04-21 08:35 -37.57555 144.99734 3759 ft 229 kts 107°
2026-04-21 08:36 -37.58066 145.01618 3561 ft 225 kts 110°
2026-04-21 08:36 -37.58970 145.03200 3393 ft 226 kts 143°
2026-04-21 08:36 -37.60405 145.03884 3235 ft 220 kts 179°
2026-04-21 08:36 -37.61873 145.03565 3118 ft 210 kts 199°
2026-04-21 08:37 -37.63234 145.02964 2940 ft 205 kts 201°
2026-04-21 08:37 -37.64566 145.02327 2712 ft 204 kts 202°
2026-04-21 08:37 -37.65834 145.01548 2529 ft 203 kts 220°
2026-04-21 08:37 -37.66713 145.00191 2520 ft 201 kts 248°
2026-04-21 08:38 -37.67010 144.98560 2484 ft 183 kts 274°
2026-04-21 08:38 -37.66930 144.97000 2294 ft 175 kts 278°
2026-04-21 08:38 -37.66842 144.95499 2085 ft 168 kts 277°
2026-04-21 08:38 -37.66758 144.94051 1873 ft 164 kts 278°
2026-04-21 08:39 -37.66677 144.92641 1642 ft 157 kts 278°
2026-04-21 08:39 -37.66601 144.91312 1444 ft 151 kts 277°
2026-04-21 08:39 -37.66526 144.90015 1271 ft 145 kts 278°
2026-04-21 08:39 -37.66454 144.88760 1068 ft 143 kts 277°
2026-04-21 08:40 -37.66382 144.87509 884 ft 143 kts 276°
2026-04-21 08:40 -37.66315 144.86260 662 ft 144 kts 277°
2026-04-21 08:40 -37.66236 144.85005 493 ft 143 kts 277°
2026-04-21 08:40 -37.66167 144.83778 415 ft 129 kts 276°
2026-04-21 08:41 -37.66114 144.82919 402 ft 71 kts 274°
2026-04-21 08:41 -37.66089 144.82458 399 ft 30 kts 272°
2026-04-21 08:41 -37.66115 144.82278 397 ft 21 kts 232°
2026-04-21 08:41 -37.66255 144.82219 392 ft 25 kts 183°
2026-04-21 08:42 -37.66388 144.82320 384 ft 26 kts 110°
2026-04-21 08:42 -37.66424 144.82561 382 ft 29 kts 100°
2026-04-21 08:42 -37.66449 144.82809 385 ft 29 kts 94°
2026-04-21 08:42 -37.66461 144.83062 393 ft 28 kts 94°
2026-04-21 08:43 -37.66475 144.83300 400 ft 27 kts 94°
2026-04-21 08:43 -37.66488 144.83535 404 ft 27 kts 94°
2026-04-21 08:43 -37.66504 144.83781 401 ft 27 kts 94°
2026-04-21 08:43 -37.66528 144.83920 402 ft 15 kts 135°
2026-04-21 08:44 -37.66644 144.83956 397 ft 20 kts 172°
2026-04-21 08:44 -37.66802 144.83986 392 ft 26 kts 171°
2026-04-21 08:44 -37.66984 144.84021 386 ft 17 kts 173°
2026-04-21 08:44 -37.67070 144.84035 383 ft 13 kts 171°
2026-04-21 08:45 -37.67173 144.84055 380 ft 16 kts 168°
2026-04-21 08:45 -37.67283 144.84076 377 ft 18 kts 171°
2026-04-21 08:45 -37.67418 144.84101 373 ft 15 kts 173°
2026-04-21 08:45 -37.67490 144.84142 372 ft 9 kts 128°
2026-04-21 08:46 -37.67496 144.84224 373 ft 10 kts 83°
2026-04-21 08:46 -37.67486 144.84310 375 ft 10 kts 81°
2026-04-21 08:46 -37.67477 144.84384 377 ft 5 kts 81°
2026-04-21 08:46 -37.67471 144.84433 378 ft 6 kts 81°
2026-04-21 08:47 -37.67465 144.84487 378 ft 0 kts 82°
2026-04-21 08:47 -37.67464 144.84490 378 ft 1 kts 82°
2026-04-21 08:47 -37.67463 144.84499 379 ft 1 kts 82°
2026-04-21 08:47 -37.67462 144.84514 379 ft 3 kts 82°
2026-04-21 08:48 -37.67459 144.84541 379 ft 3 kts 82°
2026-04-21 08:48 -37.67455 144.84576 380 ft 5 kts 82°
2026-04-21 08:48 -37.67450 144.84620 381 ft 5 kts 82°
2026-04-21 08:48 -37.67452 144.84671 381 ft 7 kts 118°
2026-04-21 08:49 -37.67482 144.84685 380 ft 5 kts 170°
2026-04-21 08:49 -37.67524 144.84693 379 ft 3 kts 171°
2026-04-21 08:49 -37.67539 144.84696 379 ft 1 kts 172°
2026-04-21 08:49 -37.67540 144.84696 379 ft 0 kts 172°
2026-04-21 08:59 -37.68704 144.85593 337 ft 0 kts 261°
2026-04-21 09:00 -37.68564 144.85855 338 ft 0 kts 261°